Location: Moy Burn
(57.3833°N, 4.0667°W)
Time: 12:31:47
(UTC+00:00)

Daily predictions for brighter satellites

Satellite Brightness Start Highest point End
(mag) Time Altitude Azimuth Time Altitude Azimuth Time Altitude Azimuth
Cosmos 2344 4.4 20:52:46 10° W 21:00:27 61° N 21:10:11 10° ENE
Cosmos 1833 Rocket 3.0 20:56:20 10° S 21:01:37 44° ESE 21:06:57 10° NE
Cosmos 1633 Rocket 3.6 20:57:36 10° SSE 21:01:47 42° E 21:05:58 10° NNE
Okean 1-7 4.2 21:00:29 10° N 21:04:19 29° ENE 21:08:06 10° SE
Cosmos 1707 Rocket 3.9 21:02:11 10° NNW 21:06:33 69° W 21:10:51 10° S
Cosmos 2251 Rocket 3.8 21:02:03 10° SW 21:07:20 76° WNW 21:12:41 10° NNE
CENTAUR R/B 4.1 21:05:57 10° SE 21:08:50 13° ESE 21:11:53 10° ENE
Resurs 01 Rocket 2.8 21:08:18 10° S 21:12:32 43° W 21:16:48 10° NNW
Landsat 7 4.0 21:10:26 10° SSE 21:15:12 78° WSW 21:20:00 10° NNW
Cosmos 1441 Rocket 3.2 21:12:28 10° SSW 21:16:15 83° WNW 21:20:03 10° NNE
Cosmos 44 3.8 21:12:54 10° NW 21:17:34 57° NNE 21:22:30 10° ESE
Cosmos 192 4.4 21:12:47 10° NNW 21:17:43 82° WSW 21:22:37 10° SSE
ATLAS 5 CENTAUR R/B 1.2 21:16:34 10° WNW 21:18:37 70° NNE 21:22:22 10° ESE
IGS 5A 3.8 21:18:51 10° S 21:22:58 64° WSW 21:27:06 10° NNW
Cosmos 1470 Rocket 4.1 21:20:21 10° SSE 21:24:30 41° E 21:28:38 10° NNE
GP-B 3.1 21:20:36 10° N 21:25:04 77° E 21:29:31 10° S
Cosmos 614 Rocket 4.0 21:19:56 10° SSW 21:25:06 79° ESE 21:30:21 10° NNE
Cosmos 1934 Rocket 4.1 21:20:19 10° S 21:26:39 72° E 21:33:02 10° NNE
Cosmos 1900 4.3 21:22:44 10° SW 21:27:44 82° SE 21:32:50 10° NE
Cosmos 921 Rocket 3.0 21:26:30 10° NNW 21:30:47 87° WSW 21:34:50 11° SSE
USA 267 3.5 21:25:27 10° ENE 21:31:45 47° SE 21:38:02 10° SW
Cosmos 1862 Rocket 3.8 21:28:36 10° NNW 21:33:06 73° W 21:37:32 10° S
NOSS 3-2 (A) 4.3 21:29:02 10° S 21:33:53 27° ESE 21:39:17 10° ENE
Cosmos 841 Rocket 4.1 21:32:08 10° NNW 21:37:12 48° NE 21:42:00 11° SE
Cosmos 540 Rocket 4.1 21:33:38 10° NNW 21:38:39 48° NE 21:43:22 12° SE
SAR-Lupe-2 4.2 21:35:23 10° NNE 21:38:46 37° E 21:41:55 11° SSE
SL-16 R/B 2.4 21:33:22 10° NW 21:39:06 72° NE 21:44:17 12° SE
COSMOS 2406 3.3 21:34:09 10° SW 21:39:56 89° NW 21:45:42 10° NE
Cosmos 1821 Rocket 4.4 21:33:59 10° SSW 21:40:07 68° WNW 21:46:23 10° N
Cosmos 468 Rocket 4.1 21:35:35 10° NNW 21:40:57 84° ENE 21:45:45 13° SSE
Lacrosse 5 2.1 21:35:58 10° WNW 21:40:58 59° SSW 21:45:31 12° SE
ERS-1 Rocket 3.1 21:36:24 10° SSE 21:41:27 81° WSW 21:46:31 10° NNW
Sich 1 3.8 21:40:06 10° SSW 21:44:28 55° WNW 21:48:52 10° N
Cosmos 1570 Rocket 4.4 21:43:18 10° NNW 21:48:33 58° NE 21:53:10 13° SE
Cosmos 2219 Rocket 3.7 21:44:46 10° NNW 21:49:50 32° NNE 21:54:54 10° E
Meteor 1-4 Rocket 4.2 21:49:24 10° NNW 21:52:29 29° W 21:55:32 10° SSW
Cosmos 2082 Rocket 2.2 21:49:11 10° SSW 21:54:46 62° ESE 22:00:23 10° NE
Cosmos 1954 Rocket 4.1 21:49:38 10° S 21:54:50 57° ESE 22:00:04 10° NE
Cosmos 1184 Rocket 2.7 21:54:30 10° SSW 21:57:48 89° ESE 22:01:08 10° NNE
Cosmos 2322 Rocket 2.3 21:55:44 10° NW 22:01:28 81° NE 22:06:13 15° SE
CARTOSAT-1 4.1 21:57:16 10° S 22:01:31 54° W 22:05:47 10° NNW
Okean 1 3.5 21:59:34 10° NNW 22:03:37 71° W 22:07:07 13° S
Terra 1.9 22:00:02 13° SSE 22:04:18 78° WSW 22:09:06 10° NNW
Cosmos 1933 Rocket 3.6 22:01:23 11° S 22:05:40 68° E 22:10:06 10° NNE
Cosmos 1190 Rocket 4.1 22:00:36 10° SSW 22:05:55 86° WNW 22:11:17 10° NNE
Cosmos 1666 Rocket 4.4 22:02:03 10° SSW 22:06:15 50° WNW 22:10:31 10° N
Cosmos 1437 Rocket 2.7 22:04:07 10° NNW 22:07:59 84° W 22:10:50 17° S
Cosmos 407 Rocket 3.8 22:03:31 10° SW 22:08:50 72° WNW 22:14:08 10° NNE
Cosmos 1238 Rocket 2.0 22:06:54 12° S 22:09:35 89° WNW 22:12:34 10° NNE
Cosmos 1242 Rocket 4.3 22:06:52 10° N 22:09:46 22° ENE 22:12:07 13° ESE
Cosmos 1602 3.7 22:06:47 13° S 22:10:14 69° E 22:14:11 10° NNE
Cosmos 2100 Rocket 4.4 22:05:35 15° SSE 22:10:30 46° E 22:16:20 10° NNE
USA 234 4.3 22:06:06 13° SSE 22:11:10 31° SW 22:16:54 10° WNW
Meteor 1-20 Rocket 4.3 22:06:56 10° SSW 22:12:46 88° E 22:18:39 10° NNE
ERBS 2.1 22:09:39 10° WSW 22:12:59 79° S 22:16:17 10° E
Cosmos 1605 Rocket 4.0 22:07:18 10° SSW 22:13:27 86° WNW 22:19:36 10° NNE
Cosmos 2360 Rocket 2.4 22:09:58 10° NW 22:15:40 66° NE 22:20:20 15° SE
Cosmos 1869 Rocket 4.2 22:13:01 18° SSE 22:15:54 40° E 22:20:06 10° NNE
COSMOS 2428 3.9 22:11:06 10° NNW 22:16:25 37° NE 22:21:45 10° ESE
SPOT 5 3.5 22:15:08 11° S 22:19:07 44° W 22:23:21 10° NNW
Meteor 1-19 Rocket 4.4 22:14:29 10° NNW 22:19:53 65° W 22:24:35 14° S
Cosmos 1703 Rocket 3.8 22:16:27 10° NNW 22:20:48 66° W 22:24:15 16° S
Cosmos 2242 Rocket 4.2 22:16:45 10° NNW 22:21:06 52° W 22:24:58 12° S
ATLAS 3B R/B 4.0 22:21:13 15° SE 22:23:19 17° ESE 22:27:24 10° ENE
Cosmos 1980 Rocket 3.7 22:18:58 10° NW 22:23:45 28° WSW 22:28:29 10° SSW
Geosat 4.0 22:20:48 18° SSE 22:24:35 81° SW 22:29:40 10° NW
Iridium 4 Rocket 3.4 22:21:44 19° SSE 22:24:36 50° E 22:28:40 10° NNE
Cosmos 2173 Rocket 4.2 22:21:11 16° SSE 22:26:01 54° E 22:31:58 10° NNE
SL-4 R/B 2.7 22:23:26 10° SW 22:26:33 25° SSE 22:27:13 23° SE
Cosmos 1763 Rocket 4.0 22:21:55 10° NW 22:27:08 56° WSW 22:31:09 17° S
Cosmos 1500 3.6 22:25:10 22° SSE 22:27:11 43° E 22:30:45 10° NNE
Cosmos 405 Rocket 2.6 22:24:28 12° SSW 22:27:49 84° WNW 22:31:36 10° NNE
USA 238 DEB 3.8 22:23:01 10° SSW 22:29:26 52° SE 22:36:09 10° NE
USA 238 3.8 22:23:08 10° SSW 22:29:33 51° SE 22:36:15 10° NE
ALOS 2 3.7 22:27:44 16° ESE 22:30:45 35° ENE 22:34:46 10° N
Cosmos 1140 Rocket 4.1 22:29:09 10° SW 22:34:22 61° NW 22:39:35 10° NNE
Meteor 1-14 Rocket 4.3 22:29:24 12° S 22:34:57 80° ESE 22:40:57 10° NNE
Cosmos 2333 Rocket 2.9 22:30:26 10° NW 22:36:04 50° NE 22:41:19 12° ESE
Cosmos 1536 4.2 22:34:39 19° SE 22:36:18 25° E 22:39:36 10° NNE
Cosmos 1271 Rocket 4.3 22:35:20 10° N 22:38:29 24° ENE 22:40:47 14° ESE
Cosmos 1666 3.8 22:37:32 22° SE 22:39:00 29° E 22:42:17 10° NNE
Meteor 1-13 Rocket 4.2 22:33:56 10° NNW 22:39:32 81° ENE 22:43:23 21° SSE
Cosmos 2237 Rocket 3.9 22:34:57 10° NNW 22:39:57 30° NNE 22:44:55 10° E
Okean 1-7 3.8 22:37:55 10° NNW 22:42:07 47° W 22:45:21 16° SSW
MOS 1-B Rocket 4.2 22:37:22 10° NNE 22:43:02 49° E 22:46:44 20° SSE
Cosmos 2221 Rocket 3.6 22:39:16 10° N 22:43:45 76° ENE 22:46:29 23° SSE
Cosmos 2016 Rocket 4.3 22:39:51 19° SSE 22:44:16 53° E 22:50:27 10° NNE
Cosmos 1833 Rocket 3.5 22:40:01 10° WSW 22:45:32 54° NW 22:51:06 10° NNE
Cosmos 2061 Rocket 4.3 22:41:23 19° SSE 22:45:39 53° E 22:51:39 10° NNE
Cosmos 1459 Rocket 4.0 22:42:36 17° S 22:47:37 73° E 22:53:59 10° NNE
Okean 3 3.5 22:43:37 10° NNW 22:47:56 85° WSW 22:50:31 24° S
FALCON 9 DEB 4.4 22:46:50 10° SW 22:48:49 24° SSW 22:48:49 24° SSW
Cosmos 1066 Rocket 4.5 22:44:12 10° NNW 22:49:59 64° ENE 22:53:46 21° SSE
Cosmos 1867 3.5 22:45:20 10° SW 22:50:47 79° SE 22:56:17 10° NE
Cosmos 44 Rocket 3.9 22:47:38 10° NW 22:52:30 57° NNE 22:57:27 10° ESE
Cosmos 1733 Rocket 4.0 22:50:59 22° SE 22:53:00 34° E 22:56:59 10° NNE
Thor Agena Rocket 4.1 22:49:25 10° NNE 22:54:15 42° E 22:57:00 23° SSE
SL-27 R/B 2.6 22:53:08 31° SSE 22:54:15 45° ESE 22:57:27 10° NE
Meteor 2-4 Rocket 4.2 22:51:13 10° NNW 22:56:51 56° W 23:00:58 18° S
CENTAUR R/B 2.9 22:51:50 11° SSW 22:57:38 49° SE 23:04:39 10° NE
Cosmos 44 3.8 22:54:11 10° NW 22:58:49 47° SW 23:01:33 24° S
Cosmos 1850 Rocket 4.0 22:54:33 14° SSW 22:59:11 74° ESE 23:04:28 10° NNE
Cosmos 1802 Rocket 4.0 22:58:41 19° S 23:03:31 77° E 23:09:53 10° NNE
Cosmos 2346 Rocket 4.5 23:00:59 10° NNW 23:07:04 78° W 23:11:12 21° S
Spot 4 3.9 23:06:33 24° S 23:09:26 74° WSW 23:14:18 10° NNW
Cosmos 1378 3.6 23:07:08 10° N 23:10:49 50° ENE 23:12:29 28° SE
USA 267 3.2 23:08:42 10° ENE 23:15:17 80° SSE 23:21:52 10° WSW
Cosmos 2344 4.3 23:07:47 10° WNW 23:16:08 73° NNE 23:27:29 10° ESE
Cosmos 2233 Rocket 4.4 23:14:30 23° SSE 23:18:21 51° E 23:24:28 10° NNE
Cosmos 841 Rocket 4.3 23:14:12 10° NW 23:19:04 41° WSW 23:22:05 21° SSW
Cosmos 540 Rocket 4.2 23:15:25 10° NW 23:20:15 41° WSW 23:23:10 21° SSW
SL-16 R/B 3.4 23:17:54 10° NW 23:22:50 31° WSW 23:26:08 18° SSW
Lacrosse 5 3.2 23:19:17 10° W 23:23:14 23° SW 23:24:40 20° SSW
NOSS 3-2 (A) 3.5 23:17:51 10° SW 23:23:51 83° SE 23:30:53 10° NE
Cosmos 2322 3.7 23:20:17 10° NW 23:26:00 83° WSW 23:29:31 24° SSE
Cosmos 1378 Rocket 3.6 23:22:06 10° N 23:26:35 77° ENE 23:28:49 29° SSE
NOSS 3-2 (C) 3.5 23:23:53 10° SW 23:29:47 69° SE 23:36:40 10° NE
COSMOS 2487 3.5 23:32:14 28° ESE 23:32:38 28° ESE 23:35:39 10° NE
GENESIS II 4.2 23:28:46 10° NW 23:32:49 75° SW 23:34:38 31° SE
Cosmos 1741 Rocket 4.2 23:28:41 11° SW 23:33:43 72° WNW 23:39:03 10° NNE
Cosmos 2219 Rocket 2.2 23:28:49 10° NW 23:34:33 86° NE 23:38:19 22° SE
Tsikada Rocket 4.2 23:29:18 10° NNW 23:35:41 69° W 23:39:45 23° S
Cosmos 2084 Rocket 3.7 23:35:30 31° S 23:37:03 45° SE 23:41:12 10° ENE
EO 1 Del DPAF 3.1 23:34:36 10° NNE 23:38:24 78° ESE 23:39:56 34° S
Cosmos 2082 Rocket 3.5 23:33:46 10° WSW 23:39:10 42° NW 23:44:35 10° NNE
Cosmos 1975 Rocket 3.9 23:35:35 10° N 23:39:54 43° ENE 23:42:25 22° SE
Cosmos 2333 4.3 23:34:35 10° NW 23:40:23 70° WSW 23:43:43 26° SSE
GRACE-FO 1 4.5 23:37:48 10° N 23:41:29 89° W 23:42:49 37° S
Terra 4.1 23:40:04 10° WSW 23:42:52 15° W 23:45:40 10° NW
Cosmos 1242 Rocket 3.1 23:41:23 10° NNW 23:44:51 48° W 23:46:08 32° SSW
Cosmos 2322 Rocket 3.6 23:40:20 10° NW 23:45:00 27° WSW 23:48:01 17° SSW
ERBS 2.1 23:45:55 10° W 23:49:15 75° S 23:51:02 25° ESE
SL-16 R/B 3.8 23:45:03 10° NNW 23:50:14 34° NNE 23:55:24 10° E
YAOGAN 11 4.4 23:48:26 26° SE 23:50:57 65° ENE 23:55:31 10° NNW
Helios 1A 3.1 23:49:48 30° SSE 23:51:49 74° ENE 23:56:03 10° NNW
SL-16 R/B 4.2 23:48:32 10° ESE 23:53:47 29° NE 23:59:02 10° N
Cosmos 1544 4.0 23:54:38 30° SE 23:55:40 36° E 23:59:05 10° NNE
